Showing default

GLOBALSTAR M040, 25622

Orbit data source: Space-Track

GLOBALSTAR M040, 25622 is a payload satellite owned by Globalstar (US) in LEO that was launched on Tue, 09 Feb 1999 UTC via a SOYUZ-U-PVB launch vehicle from the Tyuratam Missile And Space Complex (TTMTR). Payloads include a variety of satellites, spacecraft, and rockets equipped with specific instruments for various scientific and technological missions. These include communications satellites like Starlink; space stations such as the ISS; scientific satellites like the Hubble; Earth observation satellites from companies like Planet Labs, Umbra, and HawkEye 360; GPS; miniature CubeSats for education and research; and military/defense satellites.

Loading next visibility...
GLOBALSTAR M040 details
Identifier
25622, 1999-004B
Orbit
LEO
Last TLE update16 hours ago
Origin
Flag of USGlobalstar (US / GLOB)
ManufacturerSS/Loral
MissionNon-operational Commercial Communications
Bus & MotorLS-400, LS-400 AOCS
Mass450 kg wet, 380 kg dry
Launch date (UTC)
1999-02-09 (26 years ago)
Launch vehicle
SOYUZ-U-PVB
Launch site
Tyuratam Missile And Space Complex (TTMTR)
Object type
Payload
Rocket body
Debris
Shape & HBRBox + 2 Pan, 12 m
Radar Cross Section5.587 m², Large (>1 m²)

Expand to show TLE details & history

TLE from 16 hours ago
0 GLOBALSTAR M040
1 25622U 99004B   25046.78376565 -.00000051  00000-0  29650-3 0  9995
2 25622  51.9919  67.0903 0001146 126.9443  44.5677 12.62001725199928
Epoch: 2025-02-15T18:48Z
Definitive object data (Epoch: 2025-02-15T18:48:37.352Z)
Latitude6.63952°
Longitude173.71486°
Altitude1,414.124 km
Speed7.155 km/s
True Right ascension16h 07m 35s
True Declination6° 36' 12"
Sunlit
Object was in daylight at TLE epoch
Visualization TLE readout
Latitude11.5505°
Longitude5.98851°
Altitude1,414.983 km
Speed7.155 km/s
Apparent Right ascension03h 45m 30s
Apparent Declination-12° 16' 25"
Sunlit
Object is in daylight
Visualization observer readout
Local Sidereal Time13:51:42
Azimuth309.829° NW
Elevation-52.689°
Doppler factor1
Orbital elements
Apogee altitude1,415.98 km
Perigee altitude1,414.193 km
Semi-major axis7,793.224 km
Eccentricity0.0001146
Inclination51.9919°
RAAN67.0903°
Arg. of periapsis126.9443°
True anomaly44.57692°
Mean anomaly44.5677°
Eccentric anomaly44.57231°
Mean motion3.15477 °/min
BSTAR0.0002965
Orbital period114.11 mins
Loading maneuver chart data...
Loading historical data...
Loading historical data...
Loading historical data...
Loading historical data...
Loading historical data...
Loading historical data...
Loading historical data...

GLOBALSTAR M040 Visibility forecast

Observer location: undefined°, undefined

Span
Click to sort rows by Start time (UTC) header in descending order
Start Az.
Max El. time (UTC)
Max El. Az.
Max El.
End time (UTC)
End Az.
15 mins2025-02-16 11:35:23.837Z300.548° NW2025-02-16 11:42:23.837Z238.164° WSW39.778°2025-02-16 11:50:23.837Z153.309° SSE
4 mins2025-02-16 13:39:23.837Z255.403° W2025-02-16 13:41:23.837Z241.191° WSW11.761°2025-02-16 13:43:23.837Z227.219° WSW
13 mins2025-02-17 02:20:23.837Z179.077° S2025-02-17 02:26:23.837Z123.324° SE29.004°2025-02-17 02:33:23.837Z66.906° ENE
15 mins2025-02-17 04:18:23.837Z239.342° WSW2025-02-17 04:25:23.837Z323.383° NNW44.343°2025-02-17 04:33:23.837Z51.082° ENE
14 mins2025-02-17 06:19:23.837Z284.258° WNW2025-02-17 06:26:23.837Z349.441° N32.779°2025-02-17 06:33:23.837Z53.079° ENE
14 mins2025-02-17 08:21:23.837Z310.278° NW2025-02-17 08:28:23.837Z20.316° NNE33.654°2025-02-17 08:35:23.837Z81.407° E
16 mins2025-02-17 10:21:23.837Z308.218° NW2025-02-17 10:28:23.837Z339.991° N44.755°2025-02-17 10:37:23.837Z127.553° SE
|